Location: ??????????
(44.2167°N, 135.5333°E)
Time: 14:51:49
(UTC+00:00)

Cosmos 371 Rocket - Pass Details

Date: 15 June 2025
Orbit: 675 x 690 km, 74.0° (Epoch: 15 July)

Event Time Altitude Azimuth Distance (km) Brightness Sun altitude
Exits shadow 15:05:39 39° 118° (ESE) 1,036 3.9 -22.4°
Maximum altitude 15:06:08 40° 103° (ESE) 1,017 4.0 -22.4°
Drops below altitude 10° 15:10:38 10° 35° (NE) 2,148 6.6 -22.4°
Sets 15:13:03 0° 28° (NNE) 3,071 7.7 -22.4°
